Weather History for Zanesville, OH

Change the Weather History Date:

Wednesday, January 1, 2014

  Actual Average Record
Temperature  
Mean Temperature 31 °F 29 °F  
Max Temperature 40 °F 37 °F 69 °F (1952)
Min Temperature 21 °F 21 °F -11 °F (1968)
Degree Days  
Heating Degree Days 34 36  
Month to date heating degree days 34 36  
Since 1 July heating degree days 2163 2181  
Cooling Degree Days 0 0  
Month to date cooling degree days 0 0  
Year to date cooling degree days 0 0  
Moisture  
Dew Point 22 °F    
Average Humidity 71    
Maximum Humidity 88    
Minimum Humidity 54    
Precipitation  
Precipitation 0.00 in 0.09 in 1.26 in (1948)
Month to date precipitation 0.00 0.09  
Year to date precipitation 0.00 0.09  
Sea Level Pressure  
Sea Level Pressure 30.22 in    
Wind  
Wind Speed 4 mph (SE)    
Max Wind Speed 10 mph    
Max Gust Speed 16 mph    
Visibility 10 miles    
Events      
T = Trace of Precipitation, MM = Missing Value Source: NWS Daily Summary

Daily Weather History Graph

Daily Weather History Graph

Search for Another Location

Airport:

Trip Planner

Search our weather history database for the weather conditions in past years. The results will help you decide how hot, cold, wet, or windy it might be!

Date:

Astronomy

Jan. 01, 2014 Rise Set
Actual Time 7:49 AM EST 5:13 PM EST
Civil Twilight 7:18 AM EST 5:43 PM EST
Nautical Twilight 6:45 AM EST 6:17 PM EST
Astronomical Twilight 6:12 AM EST 6:50 PM EST
Moon 7:38 AM EST (1/1) 5:56 PM EST (1/1)
Length of Visible Light 10h 24m
Length of Day
9h 23m
New Moon, 0% of the Moon is Illuminated
Jan 1
New Moon
Jan 7
First Quarter
Jan 15
Full
Jan 24
Last Quarter
Jan 30
New

Hourly Weather History & Observations

Time (EST) Temp. Windchill Dew Point Humidity Pressure Visibility Wind Dir Wind Speed Gust Speed Precip Events Conditions
12:53 AM 23.0 °F - 16.0 °F 74% 30.33 in 10.0 mi Calm Calm - N/A   Partly Cloudy
1:53 AM 21.9 °F 15.7 °F 18.0 °F 85% 30.33 in 10.0 mi SSE 4.6 mph - N/A   Partly Cloudy
2:53 AM 21.9 °F - 18.0 °F 85% 30.34 in 9.0 mi Calm Calm - N/A   Partly Cloudy
3:53 AM 21.9 °F 17.2 °F 17.1 °F 82% 30.32 in 10.0 mi SE 3.5 mph - N/A   Mostly Cloudy
4:53 AM 21.9 °F - 17.1 °F 82% 30.31 in 10.0 mi Calm Calm - N/A   Partly Cloudy
5:53 AM 23.0 °F - 19.0 °F 85% 30.30 in 10.0 mi Calm Calm - N/A   Clear
6:53 AM 24.1 °F 18.2 °F 19.0 °F 81% 30.29 in 10.0 mi SSE 4.6 mph - N/A   Clear
7:53 AM 25.0 °F 17.1 °F 18.0 °F 75% 30.31 in 10.0 mi South 6.9 mph - N/A   Clear
8:53 AM 26.1 °F 17.6 °F 19.0 °F 75% 30.31 in 10.0 mi South 8.1 mph - N/A   Clear
9:53 AM 28.9 °F 25.2 °F 21.0 °F 72% 30.31 in 10.0 mi South 3.5 mph - N/A   Clear
10:53 AM 32.0 °F 26.4 °F 23.0 °F 69% 30.30 in 10.0 mi South 5.8 mph - N/A   Clear
11:53 AM 37.9 °F 31.5 °F 24.1 °F 57% 30.26 in 10.0 mi South 9.2 mph - N/A   Clear
12:53 PM 39.0 °F 34.8 °F 25.0 °F 57% 30.22 in 10.0 mi South 5.8 mph - N/A   Clear
1:53 PM 37.9 °F 32.7 °F 24.1 °F 57% 30.19 in 10.0 mi South 6.9 mph - N/A   Clear
2:53 PM 39.0 °F 34.8 °F 25.0 °F 57% 30.17 in 10.0 mi SSE 5.8 mph - N/A   Clear
3:53 PM 39.0 °F - 24.1 °F 55% 30.16 in 10.0 mi Calm Calm - N/A   Clear
4:53 PM 37.0 °F - 24.1 °F 59% 30.14 in 10.0 mi Calm Calm - N/A   Clear
5:53 PM 36.0 °F - 24.1 °F 62% 30.14 in 10.0 mi Calm Calm - N/A   Clear
6:53 PM 34.0 °F 29.8 °F 24.1 °F 67% 30.15 in 10.0 mi North 4.6 mph - N/A   Clear
7:53 PM 32.0 °F 26.4 °F 25.0 °F 75% 30.14 in 8.0 mi NNE 5.8 mph - N/A   Partly Cloudy
8:53 PM 32.0 °F 28.7 °F 25.0 °F 75% 30.12 in 8.0 mi NE 3.5 mph - N/A   Scattered Clouds
9:53 PM 32.0 °F 28.7 °F 25.0 °F 75% 30.10 in 8.0 mi NE 3.5 mph - N/A   Mostly Cloudy
10:53 PM 30.9 °F 26.2 °F 24.1 °F 76% 30.08 in 7.0 mi NE 4.6 mph - N/A   Mostly Cloudy
11:53 PM 30.0 °F 25.2 °F 23.0 °F 75% 30.08 in 7.0 mi North 4.6 mph - N/A   Overcast